Location: Bucquoy
(50.1391°N, 2.7097°E)
Time: 21:57:50
(UTC+00:00)

Daily predictions for brighter satellites

Satellite Brightness Start Highest point End
(mag) Time Altitude Azimuth Time Altitude Azimuth Time Altitude Azimuth
NOSS 3-2 (C) 4.1 17:58:06 10° NW 18:05:19 65° NE 18:13:35 10° ESE
ISS -3.7 18:07:26 10° WSW 18:10:47 69° SSE 18:14:09 10° ENE
Lacrosse 4 Rocket 3.6 18:11:35 10° N 18:13:11 12° NNE 18:14:47 10° NE
USA 186 3.6 18:12:05 10° ESE 18:14:05 15° ENE 18:16:07 10° NNE
Cosmos 1898 Rocket 4.3 18:09:40 10° SW 18:14:44 57° WNW 18:19:54 10° NNE
Meteor 2-9 Rocket 4.4 18:11:04 10° SSW 18:16:54 83° W 18:22:39 10° N
Cosmos 1300 Rocket 3.9 18:16:06 10° SSE 18:20:17 44° E 18:24:32 10° NNE
Okean 1 Rocket 4.5 18:20:35 10° SE 18:23:45 19° E 18:26:55 10° NE
CENTAUR R/B 3.2 18:16:31 10° NW 18:24:24 75° NE 18:33:10 10° SE
Sich 1 Rocket 3.6 18:20:05 10° S 18:24:35 76° E 18:29:10 10° NNE
NOSS 2-2 (E) 3.5 18:21:30 10° SW 18:25:03 72° NW 18:29:14 10° NE
Cosmos 1833 Rocket 4.0 18:21:08 10° NNW 18:25:44 24° NE 18:30:12 10° E
Cosmos 2298 Rocket 4.2 18:21:31 10° S 18:26:39 52° ESE 18:31:50 10° NNE
Cosmos 1975 4.1 18:23:56 10° SSW 18:27:53 47° WNW 18:31:50 10° N
Resurs 01 Rocket 3.7 18:26:44 10° ENE 18:27:54 11° NE 18:29:04 10° NE
Iridium 4 Rocket 4.2 18:23:51 10° SSW 18:29:03 64° W 18:34:44 10° N
CSL-04 Debris 4.1 18:25:46 10° SSE 18:31:08 79° ENE 18:36:34 10° NNW
Helios 1A Rocket 4.5 18:29:06 10° S 18:33:00 41° W 18:36:57 10° NNW
CSL-04 Rocket 3.7 18:27:39 10° SSE 18:33:06 78° ENE 18:38:40 10° NNW
Cosmos 1025 Rocket 3.0 18:29:14 10° N 18:33:38 72° ENE 18:38:01 10° SSE
ATLAS 2AS CENTAUR R/B 3.8 18:28:18 10° SSE 18:34:47 29° ESE 18:41:16 10° NE
Okean 2 Rocket 3.1 18:30:23 10° S 18:34:48 63° E 18:39:14 10° NNE
Cosmos 1937 Rocket 4.4 18:29:47 10° SW 18:34:54 53° WNW 18:40:00 10° NNE
NOSS 2-2 (D) 3.4 18:31:23 10° SW 18:34:54 73° NW 18:39:01 10° NE
YAOGAN 1 2.9 18:31:23 10° S 18:35:41 71° WSW 18:40:01 10° NNW
ATLAS 3B R/B 3.3 18:30:13 10° NW 18:36:38 42° NNE 18:42:35 13° E
SWAS 4.4 18:35:08 10° NNW 18:39:27 82° ENE 18:43:44 10° SSE
Abrixas rocket 2.6 18:37:24 10° W 18:40:08 42° SSW 18:42:11 15° SE
CREW DRAGON DEMO-1 DEB 3.1 18:39:00 10° WNW 18:41:59 58° SSW 18:44:16 16° SE
Cosmos 1513 Rocket 4.4 18:36:12 10° S 18:42:24 76° E 18:48:33 10° NNE
Cosmos 1536 Rocket 3.5 18:38:57 10° N 18:43:25 69° ENE 18:47:52 10° SSE
Cosmos 1125 Rocket 3.7 18:42:13 10° S 18:47:18 49° ESE 18:52:26 10° NNE
SJ-6B 3.5 18:48:31 16° ESE 18:50:59 32° ENE 18:54:24 10° N
CZ-4 R/B 3.0 18:49:26 10° SSW 18:53:22 39° W 18:57:18 10° NNW
USA 238 DEB 4.3 18:46:36 10° NW 18:53:43 65° SW 19:01:06 10° SSE
USA 238 4.3 18:46:42 10° NW 18:53:50 65° SW 19:01:13 10° SSE
Cosmos 2150 Rocket 4.0 18:48:48 10° SSW 18:54:12 79° ESE 18:59:42 10° NNE
SJ-11-01 4.4 18:49:38 10° S 18:54:21 78° WSW 18:59:04 10° NNW
CZ-2C R/B 3.6 18:50:05 10° S 18:55:27 68° WSW 19:01:09 10° NNW
Cosmos 1464 Rocket 4.0 18:49:37 10° S 18:55:46 90° E 19:02:01 10° N
Cosmos 1674 2.7 18:51:59 10° N 18:55:49 61° ENE 18:59:36 10° SSE
Cosmos 2026 Rocket 4.4 18:50:20 10° N 18:56:24 43° ENE 19:02:16 11° SE
Cosmos 1092 Rocket 4.1 18:50:39 10° N 18:56:42 53° ENE 19:02:44 10° SSE
Okean-O 4.5 18:53:15 10° SSW 18:57:16 33° W 19:01:20 10° NNW
Cosmos 2285 Rocket 4.1 18:52:00 10° S 18:58:03 51° ESE 19:04:12 10° NNE
MOS 1 Rocket 3.0 18:58:04 10° NNE 19:02:29 71° ESE 19:06:44 10° S
FREGAT/IRIS 3.0 19:04:41 32° ENE 19:04:42 32° ENE 19:07:05 10° N
ARGOS 3.2 19:05:38 10° SSE 19:11:00 81° WSW 19:16:27 10° NNW
CZ-2C R/B 3.0 19:07:18 10° NNE 19:12:40 46° E 19:18:02 10° S
Cosmos 1340 Rocket 3.7 19:15:11 28° E 19:15:11 28° E 19:18:30 10° NNE
Cosmos 1733 3.5 19:13:48 15° SSE 19:16:42 42° E 19:20:20 10° NNE
Cosmos 2151 Rocket 3.9 19:13:02 10° SSW 19:17:29 70° WNW 19:22:01 10° N
Lacrosse 5 rocket 2.6 19:14:08 10° WNW 19:18:10 35° N 19:20:43 20° ENE
MOS 1 4.3 19:13:05 12° SSE 19:18:26 69° ENE 19:24:08 10° NNW
Cosmos 2082 Rocket 3.1 19:13:59 10° NNW 19:19:00 32° NE 19:21:17 24° E
BREEZE-M DEB (TANK) 4.1 19:19:13 10° W 19:22:17 34° SSW 19:27:36 16° SE
DMSP B5D2-2 4.3 19:17:24 10° NNE 19:22:31 47° E 19:27:35 10° S
BREEZE-M R/B 3.9 19:13:03 10° WSW 19:23:07 57° SSE 19:24:25 35° ESE
Meteor 1-15 Rocket 4.2 19:22:32 10° S 19:28:12 89° W 19:34:01 10° NNE
Cosmos 1805 3.1 19:24:40 10° S 19:28:34 81° E 19:32:31 10° NNE
OBJECT-B 1.2 19:28:48 44° ENE 19:28:48 44° ENE 19:31:49 10° N
Ariane Rocket 3.0 19:28:06 12° SSE 19:32:52 84° WSW 19:37:59 10° NNW
SL-08 RB Rocket 4.0 19:28:23 10° S 19:32:56 67° WSW 19:37:28 10° NNW
H-2A R/B 3.3 19:29:47 10° SSW 19:34:29 40° W 19:39:20 10° NNW
Cosmos 1269 Rocket 4.1 19:30:41 10° NNW 19:36:02 82° WSW 19:39:33 22° SSE
Cosmos 1626 2.0 19:37:25 10° N 19:41:08 86° E 19:42:02 50° SSE
Okean 1-7 Rocket 4.0 19:37:01 10° N 19:41:25 44° ENE 19:41:51 42° E
Terra 4.1 19:42:51 11° NE 19:42:51 11° NE 19:43:44 10° NE
MetOp-A 4.1 19:40:20 18° SSE 19:44:25 84° WSW 19:49:48 10° NNW
USA 186 3.0 19:42:34 20° SSW 19:44:27 42° W 19:47:38 10° NNW
COSMOS 2406 3.1 19:39:33 10° NNW 19:45:17 87° ENE 19:47:55 33° SSE
Cosmos 1455 Rocket 4.2 19:47:18 28° NE 19:47:18 28° NE 19:49:52 10° NNE
Cosmos 1844 Rocket 3.4 19:41:44 10° SW 19:47:11 54° NW 19:52:43 10° NNE
ISS -3.6 19:44:18 10° W 19:47:40 65° N 19:47:46 65° N
Cosmos 2278 Rocket 2.5 19:46:01 10° S 19:51:32 42° ESE 19:56:35 10° NE
Lacrosse 4 Rocket 1.7 19:48:54 10° NNW 19:52:52 47° NE 19:52:52 47° NE
Cosmos 1844 4.3 19:49:15 10° SW 19:54:51 58° NW 20:00:25 10° NNE
Meteor 2-5 Rocket 4.2 19:49:53 10° NNW 19:55:29 63° W 20:00:46 12° S
Meteor 1-22 Rocket 4.3 19:50:09 10° S 19:56:04 81° E 20:02:12 10° NNE
Meteor 1-24 Rocket 3.8 19:52:17 10° NNW 19:57:51 76° W 20:01:37 22° S
Cosmos 909 Rocket 4.2 19:51:22 10° NW 19:57:56 59° NE 19:59:54 42° E
Exosat Rocket 3.9 19:53:59 10° SW 19:59:12 64° WNW 20:04:15 10° NNE
Cosmos 2266 Rocket 4.3 19:54:17 10° N 19:59:59 41° ENE 20:00:34 40° E
SL-14 R/B 3.5 19:57:08 10° NNW 20:01:04 66° W 20:01:55 50° SSW
Okean 1 Rocket 3.8 19:56:52 10° SSW 20:01:15 53° WNW 20:05:41 10° N
Meteor 2-19 Rocket 4.4 19:55:54 10° N 20:02:00 65° ENE 20:03:47 45° SE
NOSS 3-4 (A) 3.3 19:56:19 10° SW 20:02:15 80° SE 20:08:39 10° NE
NOSS 3-4 (C) 3.3 19:56:25 10° SW 20:02:21 80° SE 20:08:46 10° NE
Resurs 01 Rocket 1.5 20:03:26 67° E 20:03:34 67° ENE 20:08:00 10° N
Cosmos 1833 Rocket 2.6 20:04:40 10° NNW 20:10:22 83° WSW 20:11:54 50° SSE
Cosmos 1766 4.4 20:06:41 10° SSW 20:10:27 43° WNW 20:14:16 10° N
CZ-2C R/B 4.3 20:06:47 10° NNE 20:09:58 43° NE 20:09:58 43° NE
Cosmos 2251 Rocket 3.5 20:07:54 10° NNW 20:13:17 66° ENE 20:13:44 63° E
CENTAUR R/B 4.3 20:07:33 10° NW 20:14:56 39° WSW 20:22:00 13° S
ERS-1 Rocket 4.2 20:17:39 28° NE 20:17:39 28° NE 20:21:08 10° N
ARIANE 5 R/B 3.2 20:20:05 45° NNE 20:20:05 45° NNE 20:23:22 10° N
SPOT 3 Rocket 3.7 20:20:50 46° SSW 20:22:15 68° WSW 20:27:25 10° NNW
Cosmos 1634 Rocket 4.4 20:18:30 10° SSW 20:24:36 63° WNW 20:30:48 10° N
ATLAS 2AS CENTAUR R/B 3.0 20:17:05 10° SW 20:25:05 87° NW 20:32:59 10° NE
Resurs 1-3 4.3 20:26:17 45° SW 20:26:59 50° W 20:31:17 10° NNW
Landsat 7 4.2 20:27:58 52° NNE 20:27:58 52° NNE 20:31:53 10° N
ATLAS 3B R/B 2.8 20:20:58 10° NW 20:27:47 69° SW 20:29:50 47° S
Cosmos 1892 Rocket 4.2 20:23:54 10° NNW 20:28:07 50° W 20:28:35 47° WSW
SPOT 5 4.1 20:33:48 34° NE 20:33:48 34° NE 20:37:41 10° N
Meteor 1-21 Rocket 4.2 20:27:24 10° N 20:33:12 71° ENE 20:33:15 71° E
Cosmos 1655 Rocket 3.9 20:30:27 10° N 20:36:46 90° NE 20:37:50 65° S
Cosmos 1461 4.1 20:35:43 10° NNW 20:39:30 42° N 20:39:30 42° N
CZ-2C R/B 4.3 20:47:52 10° N 20:52:48 34° WNW 20:57:47 10° SW
Lacrosse 5 rocket 2.8 20:53:24 10° NW 20:56:20 40° NW 20:56:20 40° NW
MetOp-B 4.4 20:58:51 62° W 20:58:51 62° W 21:04:01 10° NNW
Cosmos 2098 Rocket 4.1 20:54:26 10° NNW 21:01:08 62° W 21:01:45 59° WSW
OBJECT-B 4.0 21:01:59 12° WNW 21:01:59 12° WNW 21:02:55 10° WNW
Cosmos 2082 Rocket 2.6 20:57:54 10° NW 21:03:08 56° W 21:03:08 56° W
Spot 2 Rocket 4.1 21:05:26 54° NW 21:05:26 54° NW 21:09:25 10° NNW
Terra 3.5 21:21:44 28° N 21:21:44 28° N 21:24:02 10° N
ATLAS CENTAUR R/B 4.3 21:27:11 10° NNW 21:27:26 11° NNW 21:27:26 11° NNW
Lacrosse 4 Rocket 4.1 21:28:02 10° WNW 21:29:10 16° WNW 21:29:10 16° WNW
Cosmos 2278 Rocket 3.3 21:33:01 27° W 21:35:24 41° NW 21:40:46 10° NNE
Resurs 01 Rocket 4.2 21:41:01 16° W 21:41:01 16° W 21:43:18 10° NW
ATLAS 2AS CENTAUR R/B 4.2 22:09:41 10° W 22:17:04 39° NNW 22:24:12 10° NE
NOSS 3-1 (C) 4.5 22:31:58 10° NW 22:37:24 55° NNW 22:37:24 55° NNW
CZ-4C R/B 4.3 22:45:17 23° NNE 22:45:17 23° NNE 22:48:02 10° NE
Cosmos 2297 Rocket 4.3 22:53:34 10° NNW 22:56:26 21° NNE 22:56:26 21° NNE
Cosmos 2369 Rocket 4.4 23:10:31 19° NNE 23:10:31 19° NNE 23:12:04 10° NNE
SL-16 R/B 4.3 23:50:37 24° NE 23:50:37 24° NE 23:54:42 10° N
